[[[{"header":{"parameterUnit":"kt","parameterCategory":2,"dx":1,"dy":1,"la1":30.253999710083008,"la2":30.299108505249023,"lo1":-89.0895004272461,"lo2":-89.04439544677734,"nx":28,"ny":28,"refTime":"2022-09-19T21:00:00:Z","depth":"0","parameterNumber":2,"parameterNumberName":"U-component_of_CURRENTS"},"data":[-0.1713,-0.1618,-0.1606,-0.1543,-0.1572,-0.1538,-0.154,-0.155,-0.1598,-0.1621,-0.1635,-0.1776,-0.1752,-0.1565,-0.1464,-0.1479,-0.128,-0.1141,-0.1107,-0.1683,-0.1752,-0.1817,-0.1687,-0.1147,-0.1145,-0.0362,-0.0353,-0.0347,-0.1806,-0.1777,-0.1764,-0.1787,-0.1793,-0.1891,-0.1959,-0.1942,-0.1972,-0.2112,-0.2225,-0.2281,-0.2337,-0.2443,-0.241,-0.2262,-0.2216,-0.2126,-0.1942,-0.189,-0.2679,-0.257,-0.2211,-0.2211,-0.2211,-0.2211,-0.2212,-0.2212,-0.1985,-0.1946,-0.1966,-0.1975,-0.2037,-0.2085,-0.208,-0.2204,-0.2279,-0.2391,-0.2596,-0.2675,-0.2842,-0.3047,-0.3111,-0.2991,-0.3011,-0.2959,-0.2791,-0.2707,-0.2468,-0.3243,-0.3111,-0.3113,-0.3115,-0.3117,-0.3119,0,-0.2133,-0.2151,-0.217,-0.2198,-0.2238,-0.2306,-0.2398,-0.2427,-0.2634,-0.2713,-0.2839,-0.2956,-0.3164,-0.3247,-0.3401,-0.3495,-0.3368,-0.3604,-0.346,-0.3001,-0.2773,-0.2644,-0.3571,-0.3498,-0.3503,-0.3506,-0.3509,-0.3511,-0.2304,-0.2288,-0.2388,-0.2402,-0.2447,-0.2513,-0.2566,-0.2746,-0.2805,-0.3004,-0.3029,-0.3187,-0.3312,-0.3527,-0.3663,-0.3815,-0.3691,-0.3713,-0.3732,-0.3513,-0.3332,-0.3207,-0.3093,-0.3561,-0.3555,-0.3549,-0.3545,0,-0.2386,-0.2473,-0.2492,-0.2621,-0.2663,-0.2677,-0.2821,-0.2869,-0.3006,-0.3092,-0.3127,-0.3355,-0.3488,-0.3687,-0.3893,-0.3968,-0.3882,-0.4083,-0.3863,-0.3834,-0.3583,-0.3416,-0.3131,-0.2979,-0.4011,-0.4008,-0.4004,0,-0.2557,-0.2569,-0.2694,-0.2704,-0.2737,-0.2875,-0.2924,-0.3033,-0.3175,-0.3241,-0.3421,-0.3491,-0.3728,-0.3843,-0.3979,-0.4052,-0.4136,-0.4125,-0.4124,-0.3976,-0.3948,-0.3818,-0.3648,-0.4316,-0.4316,-0.4315,-0.4315,0,-0.2652,-0.2745,-0.2757,-0.2801,-0.2948,-0.298,-0.3065,-0.3222,-0.3289,-0.3439,-0.3477,-0.3664,-0.3736,-0.3869,-0.4013,-0.4031,-0.4162,-0.4209,-0.4134,-0.4123,-0.4001,-0.3974,-0.3796,-0.4315,-0.4315,-0.4315,-0.4315,0,-0.2788,-0.2835,-0.2851,-0.2977,-0.2997,-0.3043,-0.3178,-0.3259,-0.3427,-0.3487,-0.3609,-0.3706,-0.3853,-0.3882,-0.4062,-0.4021,-0.4088,-0.4154,-0.4157,-0.4033,-0.4019,-0.3885,-0.3835,-0.3662,-0.417,-0.4169,-0.4168,0,-0.287,-0.29,-0.2981,-0.3026,-0.3054,-0.3191,-0.3258,-0.3377,-0.3468,-0.3562,-0.3694,-0.3773,-0.3847,-0.3883,-0.3967,-0.4065,-0.4115,-0.4078,-0.4159,-0.4161,-0.402,-0.4006,-0.3826,-0.3832,-0.4155,-0.4156,-0.4157,0,-0.2934,-0.3043,-0.3042,-0.3082,-0.3206,-0.325,-0.3325,-0.3436,-0.3489,-0.3589,-0.3658,-0.379,-0.385,-0.3905,-0.3986,-0.4048,-0.4093,-0.405,-0.4054,-0.4061,-0.4164,-0.4006,-0.4,-0.4105,-0.4107,-0.4108,-0.4147,0,-0.305,-0.3096,-0.3092,-0.3179,-0.3235,-0.3268,-0.3387,-0.3445,-0.3503,-0.3589,-0.3681,-0.3787,-0.3883,-0.3911,-0.3962,-0.404,-0.4021,-0.4042,-0.4062,-0.4069,-0.4081,-0.4089,-0.4005,-0.4005,-0.4006,-0.4006,0,0,-0.3096,-0.3143,-0.3227,-0.3252,-0.3303,-0.3409,-0.3428,-0.35,-0.3615,-0.3659,-0.3662,-0.3812,-0.3878,-0.3986,-0.4,-0.4017,-0.4022,-0.401,-0.4056,-0.4061,-0.4066,-0.4079,-0.4086,-0.4007,-0.4007,-0.4007,-0.4008,0,-0.3137,-0.3216,-0.322,-0.3286,-0.337,-0.3443,-0.3447,-0.3551,-0.3599,-0.3661,-0.3739,-0.3811,-0.387,-0.3962,-0.4005,-0.4017,-0.4035,-0.4005,-0.4005,-0.4058,-0.4063,-0.4067,-0.408,-0.4086,-0.4009,-0.4009,-0.4009,0,-0.3197,-0.3269,-0.3295,-0.3402,-0.3453,-0.3499,-0.3562,-0.3604,-0.3653,-0.3731,-0.3789,-0.3844,-0.3918,-0.3971,-0.3991,-0.3999,-0.4052,-0.4031,-0.4029,-0.404,-0.4097,-0.4101,-0.4105,-0.4056,-0.4056,-0.4056,0,0,-0.3225,-0.3266,-0.3385,-0.3421,-0.3445,-0.3542,-0.3577,-0.3635,-0.3705,-0.3731,-0.3795,-0.3855,-0.3913,-0.3942,-0.3991,-0.4026,-0.4055,-0.4035,-0.4033,-0.4031,-0.4041,-0.4096,-0.41,-0.4056,-0.4056,-0.4056,0,0,-0.3237,-0.3363,-0.3413,-0.3463,-0.3537,-0.3644,-0.3649,-0.3705,-0.3762,-0.3761,-0.3842,-0.386,-0.3902,-0.3935,-0.3929,-0.3996,-0.4007,-0.4009,-0.3977,-0.3975,-0.3973,-0.3975,-0.3973,0,0,0,0,0,-0.3338,-0.3348,-0.3392,-0.3416,-0.3555,-0.3627,-0.3645,-0.3721,-0.3738,-0.3745,-0.3811,-0.3836,-0.3956,-0.3952,-0.3965,-0.3969,-0.4055,-0.4055,-0.4056,-0.4022,-0.4019,-0.4017,0,0,0,0,0,0,-0.3348,-0.3376,-0.3392,-0.3501,-0.3533,-0.3627,-0.3681,-0.3702,-0.3739,-0.3747,-0.3825,-0.3839,-0.3895,-0.3948,-0.3959,-0.3963,-0.3969,-0.4055,-0.4055,-0.4056,-0.4021,-0.4019,-0.4017,0,0,0,0,0,-0.3356,-0.3379,-0.3583,-0.3501,-0.3529,-0.3636,-0.3681,-0.3699,-0.3724,-0.3816,-0.3831,-0.3777,-0.3893,-0.3906,-0.3955,-0.3957,-0.3962,-0.3966,-0.4055,-0.4055,-0.4056,-0.402,0,0,0,0,0,0,-0.3362,-0.339,-0.3591,-0.3602,-0.3501,-0.3632,-0.3655,-0.3695,-0.379,-0.3807,-0.3772,-0.3776,-0.3892,-0.3902,-0.3912,-0.3953,-0.3957,-0.3961,-0.3963,-0.4055,-0.4056,-0.4056,0,0,0,0,0,0,-0.3379,-0.3399,-0.3596,-0.3593,-0.3604,-0.3627,-0.3648,-0.3686,-0.3789,-0.374,-0.3748,-0.3772,-0.3869,-0.39,-0.3907,-0.3964,-0.3952,-0.3956,-0.3958,-0.396,-0.4056,-0.4056,0,0,0,0,0,0,-0.3389,-0.3406,-0.359,-0.3599,-0.3609,-0.3741,-0.366,-0.3791,-0.3811,-0.3733,-0.3813,-0.3814,-0.3864,-0.3874,-0.3904,-0.3957,-0.3962,-0.3952,-0.3955,-0.3957,-0.3958,0,0,0,0,0,0,0,-0.3397,-0.3262,-0.3526,-0.3604,-0.3613,-0.3708,-0.3711,-0.3714,-0.3811,-0.3812,-0.3813,-0.3813,-0.3931,-0.3935,-0.3939,-0.3951,0,0,-0.3952,-0.3954,0,0,0,0,0,0,0,0,-0.3256,-0.326,-0.3527,-0.3529,-0.3532,-0.3709,-0.3711,-0.3713,-0.3811,-0.3812,-0.3812,-0.3813,-0.3932,-0.3935,-0.3939,0,0,0,0,0,0,0,0,0,0,0,0,0,0,0,-0.3527,-0.3529,0,-0.3709,-0.3711,-0.3713,-0.3811,-0.3812,-0.3812,-0.3813,-0.3933,-0.3936,-0.3939,0,0,0,0,0,0,0,0,0,0,0,0,0,0,0,0,0,0,0,0,0,0,0,0,0,0,0,0,0,0,0,0,0,0,0,0,0,0,0,0,0,0,0,0,0,0,0,0,0,0,0,0,0,0,0,0,0,0,0,0,0,0,0,0,0,0,0,0,0]}],[{"header":{"parameterUnit":"kt","parameterCategory":2,"dx":1,"dy":1,"la1":30.253999710083008,"la2":30.299108505249023,"lo1":-89.0895004272461,"lo2":-89.04439544677734,"nx":28,"ny":28,"refTime":"2022-09-19T21:00:00:Z","depth":"0","parameterNumber":3,"parameterNumberName":"V-component_of_CURRENTS"},"data":[-0.1172,-0.1252,-0.134,-0.1521,-0.1635,-0.1748,-0.1807,-0.1893,-0.1948,-0.1996,-0.1985,-0.1963,-0.1868,-0.2131,-0.2132,-0.2121,-0.1958,-0.2006,-0.1852,-0.1929,-0.1928,-0.1927,-0.1941,-0.1927,-0.1927,-0.1764,-0.1762,-0.176,-0.122,-0.1307,-0.1421,-0.1581,-0.1698,-0.1775,-0.19,-0.1945,-0.205,-0.2128,-0.2214,-0.2262,-0.2365,-0.2373,-0.2398,-0.2288,-0.2242,-0.2149,-0.2134,-0.2054,-0.2226,-0.2258,-0.2313,-0.2313,-0.2313,-0.2313,-0.2313,-0.2313,-0.1317,-0.1362,-0.148,-0.1604,-0.1719,-0.183,-0.1883,-0.1988,-0.2087,-0.2172,-0.2253,-0.2281,-0.2388,-0.2411,-0.2394,-0.2328,-0.2248,-0.2232,-0.2122,-0.2142,-0.2092,-0.2281,-0.2341,-0.234,-0.234,-0.2339,-0.2339,0,-0.1384,-0.144,-0.1518,-0.1655,-0.1741,-0.1837,-0.193,-0.1977,-0.2075,-0.2139,-0.2226,-0.2264,-0.2314,-0.2356,-0.2336,-0.2286,-0.2119,-0.2191,-0.2111,-0.2057,-0.2071,-0.1973,-0.212,-0.2188,-0.2187,-0.2186,-0.2185,-0.2184,-0.1434,-0.1479,-0.1628,-0.1687,-0.174,-0.1831,-0.1892,-0.1974,-0.2023,-0.2111,-0.2145,-0.218,-0.2219,-0.2211,-0.2218,-0.2186,-0.2068,-0.2157,-0.2142,-0.207,-0.1948,-0.1957,-0.1885,-0.2168,-0.217,-0.2172,-0.2173,0,-0.1463,-0.1532,-0.1617,-0.1738,-0.1776,-0.1832,-0.1928,-0.1978,-0.2021,-0.2084,-0.2098,-0.2135,-0.2148,-0.2131,-0.2092,-0.2076,-0.2025,-0.2048,-0.2081,-0.207,-0.2031,-0.1936,-0.1983,-0.1905,-0.2053,-0.2055,-0.2056,0,-0.1501,-0.1551,-0.165,-0.1693,-0.178,-0.183,-0.1902,-0.1943,-0.2,-0.2056,-0.2063,-0.2103,-0.2081,-0.2087,-0.204,-0.2039,-0.2023,-0.2003,-0.1983,-0.2013,-0.2018,-0.1963,-0.1869,-0.1955,-0.1955,-0.1955,-0.1956,0,-0.1477,-0.1576,-0.164,-0.1673,-0.1764,-0.1806,-0.1849,-0.1904,-0.195,-0.1994,-0.2009,-0.2059,-0.2068,-0.2051,-0.2015,-0.1993,-0.2,-0.1952,-0.1968,-0.1968,-0.2006,-0.201,-0.2001,-0.1956,-0.1956,-0.1956,-0.1956,0,-0.148,-0.1544,-0.1611,-0.1705,-0.1724,-0.1754,-0.1831,-0.187,-0.1928,-0.194,-0.1985,-0.1986,-0.2031,-0.1988,-0.1997,-0.1992,-0.1951,-0.1922,-0.1919,-0.1975,-0.1924,-0.1959,-0.1986,-0.192,-0.1851,-0.185,-0.185,0,-0.1464,-0.1535,-0.1563,-0.1628,-0.1669,-0.1691,-0.174,-0.1777,-0.1794,-0.184,-0.1871,-0.1907,-0.1898,-0.1905,-0.1924,-0.1897,-0.1904,-0.1901,-0.1862,-0.1861,-0.1934,-0.1955,-0.1998,-0.1976,-0.1845,-0.1846,-0.1846,0,-0.144,-0.1511,-0.152,-0.1564,-0.1596,-0.161,-0.1652,-0.1701,-0.1739,-0.1753,-0.1812,-0.1851,-0.1849,-0.1874,-0.1877,-0.1888,-0.189,-0.1854,-0.1854,-0.1862,-0.1884,-0.1939,-0.1946,-0.1879,-0.188,-0.1881,-0.1842,0,-0.1466,-0.1498,-0.1507,-0.1555,-0.1565,-0.158,-0.1598,-0.1618,-0.1625,-0.1646,-0.17,-0.171,-0.1759,-0.1759,-0.1762,-0.1817,-0.1791,-0.178,-0.1809,-0.1807,-0.1782,-0.1785,-0.1742,-0.1742,-0.1741,-0.1741,0,0,-0.1449,-0.1484,-0.1489,-0.1518,-0.1535,-0.1518,-0.1542,-0.1557,-0.1571,-0.1602,-0.1579,-0.1648,-0.1671,-0.1751,-0.1744,-0.1736,-0.1726,-0.1794,-0.1789,-0.1794,-0.1799,-0.1778,-0.1781,-0.174,-0.174,-0.174,-0.174,0,-0.1464,-0.1474,-0.1493,-0.1505,-0.1511,-0.1517,-0.1513,-0.152,-0.154,-0.1563,-0.1579,-0.1601,-0.1654,-0.1697,-0.1723,-0.1725,-0.1757,-0.1726,-0.1779,-0.1785,-0.179,-0.1795,-0.1775,-0.1779,-0.1739,-0.1739,-0.1739,0,-0.1472,-0.1488,-0.1491,-0.1502,-0.1506,-0.1521,-0.151,-0.1506,-0.1531,-0.1544,-0.1593,-0.1602,-0.1638,-0.1683,-0.1703,-0.1713,-0.1775,-0.1766,-0.1766,-0.1799,-0.1807,-0.1813,-0.1817,-0.1765,-0.1765,-0.1765,0,0,-0.1488,-0.1505,-0.1505,-0.1502,-0.1505,-0.1507,-0.1506,-0.1509,-0.152,-0.1529,-0.157,-0.1602,-0.1636,-0.1669,-0.1697,-0.1743,-0.1748,-0.1772,-0.1771,-0.177,-0.1802,-0.181,-0.1814,-0.1767,-0.1767,-0.1767,0,0,-0.1487,-0.1504,-0.1508,-0.1509,-0.1507,-0.151,-0.1512,-0.1512,-0.1533,-0.1536,-0.1585,-0.16,-0.1638,-0.1659,-0.167,-0.1735,-0.1732,-0.1732,-0.1754,-0.1753,-0.1751,-0.1787,-0.1734,0,0,0,0,0,-0.15,-0.1501,-0.1504,-0.1503,-0.151,-0.1506,-0.1508,-0.1517,-0.1519,-0.1525,-0.1547,-0.1598,-0.1664,-0.1676,-0.1693,-0.1738,-0.1787,-0.1783,-0.178,-0.1816,-0.1814,-0.1813,0,0,0,0,0,0,-0.15,-0.15,-0.1503,-0.1505,-0.1506,-0.1507,-0.1518,-0.1521,-0.152,-0.1522,-0.1587,-0.16,-0.1641,-0.1673,-0.1687,-0.1729,-0.173,-0.1785,-0.1782,-0.178,-0.1815,-0.1814,-0.1813,0,0,0,0,0,-0.1499,-0.1499,-0.1509,-0.1506,-0.1506,-0.1512,-0.1519,-0.1522,-0.1529,-0.158,-0.1592,-0.1533,-0.1639,-0.1655,-0.1681,-0.1722,-0.1721,-0.1726,-0.1783,-0.1781,-0.1779,-0.1815,0,0,0,0,0,0,-0.1499,-0.1513,-0.1509,-0.1509,-0.1506,-0.1513,-0.1516,-0.1522,-0.159,-0.1597,-0.153,-0.1531,-0.1639,-0.1651,-0.1662,-0.1717,-0.1713,-0.1718,-0.1721,-0.1782,-0.178,-0.1778,0,0,0,0,0,0,-0.1513,-0.1514,-0.151,-0.151,-0.1511,-0.1514,-0.1516,-0.1566,-0.1593,-0.1539,-0.1539,-0.153,-0.1639,-0.1648,-0.1657,-0.1733,-0.1708,-0.1712,-0.1716,-0.1718,-0.178,-0.1779,0,0,0,0,0,0,-0.1513,-0.1514,-0.1511,-0.1511,-0.1512,-0.1519,-0.1561,-0.1584,-0.1543,-0.1538,-0.1543,-0.1544,-0.1636,-0.1645,-0.1653,-0.1725,-0.1731,-0.1708,-0.1711,-0.1713,-0.1715,0,0,0,0,0,0,0,-0.1513,-0.1506,-0.15,-0.1512,-0.1513,-0.1508,-0.1509,-0.151,-0.1543,-0.1543,-0.1543,-0.1544,-0.1681,-0.1686,-0.1691,-0.1718,0,0,-0.1707,-0.171,0,0,0,0,0,0,0,0,-0.1506,-0.1506,-0.15,-0.15,-0.1499,-0.1508,-0.1509,-0.1509,-0.1543,-0.1543,-0.1543,-0.1544,-0.1682,-0.1686,-0.1691,0,0,0,0,0,0,0,0,0,0,0,0,0,0,0,-0.15,-0.15,0,-0.1508,-0.1509,-0.1509,-0.1543,-0.1543,-0.1543,-0.1543,-0.1683,-0.1687,-0.169,0,0,0,0,0,0,0,0,0,0,0,0,0,0,0,0,0,0,0,0,0,0,0,0,0,0,0,0,0,0,0,0,0,0,0,0,0,0,0,0,0,0,0,0,0,0,0,0,0,0,0,0,0,0,0,0,0,0,0,0,0,0,0,0,0,0,0,0,0]}]],[[{"header":{"parameterUnit":"kt","parameterCategory":2,"dx":1,"dy":1,"la1":30.253999710083008,"la2":30.299108505249023,"lo1":-89.0895004272461,"lo2":-89.04439544677734,"nx":28,"ny":28,"refTime":"2022-09-19T21:00:00:Z","depth":"2","parameterNumber":2,"parameterNumberName":"U-component_of_CURRENTS"},"data":[-0.2304,-0.2237,-0.2229,-0.2143,-0.2086,-0.2011,-0.2021,-0.2082,-0.1966,-0.1715,-0.1372,-0.1218,-0.0931,-0.056,-0.0443,-0.0246,-0.0373,-0.024,-0.0468,-0.0599,-0.0626,-0.0623,-0.0683,0,0,0,0,0,-0.2369,-0.2324,-0.2283,-0.2215,-0.2194,-0.215,-0.2194,-0.2198,-0.2246,-0.2064,-0.2007,-0.1511,-0.1215,-0.0878,-0.0436,-0.0325,-0.0377,-0.032,-0.0398,-0.0426,-0.0452,-0.0472,-0.017,-0.0169,-0.0168,-0.0168,0,0,-0.2479,-0.2445,-0.2385,-0.2299,-0.2261,-0.2269,-0.2231,-0.2269,-0.2285,-0.2202,-0.225,-0.1992,-0.1702,-0.1022,-0.0849,-0.0593,-0.0695,-0.0633,-0.0647,-0.0665,-0.0689,-0.0685,-0.0448,-0.0449,-0.045,-0.0451,-0.0452,0,-0.2558,-0.252,-0.2476,-0.2401,-0.2337,-0.2298,-0.2244,-0.2254,-0.2203,-0.2195,-0.2215,-0.2158,-0.1799,-0.1482,-0.1057,-0.0953,-0.0885,-0.0783,-0.0992,-0.0954,-0.0955,-0.0969,-0.0997,-0.0766,-0.077,-0.0772,-0.0773,-0.0775,-0.2632,-0.2591,-0.2507,-0.2469,-0.2412,-0.232,-0.2269,-0.2195,-0.2177,-0.21,-0.2101,-0.1928,-0.1873,-0.1556,-0.1298,-0.1046,-0.1146,-0.0856,-0.0958,-0.1185,-0.1194,-0.1216,-0.1236,-0.0807,-0.0803,-0.08,-0.0797,0,-0.2669,-0.2639,-0.2557,-0.2481,-0.2447,-0.2375,-0.2268,-0.2217,-0.2138,-0.2068,-0.2029,-0.1949,-0.1808,-0.163,-0.1472,-0.139,-0.1255,-0.1196,-0.1127,-0.1107,-0.1248,-0.1264,-0.104,-0.1036,-0.1032,-0.1029,-0.1026,0,-0.2713,-0.2645,-0.2592,-0.255,-0.2467,-0.2407,-0.23,-0.2239,-0.215,-0.2098,-0.2005,-0.1975,-0.1828,-0.1706,-0.1637,-0.1471,-0.1484,-0.1428,-0.1414,-0.137,-0.1361,-0.1586,-0.1599,-0.1494,-0.1495,-0.1497,-0.1498,0,-0.2754,-0.2667,-0.2604,-0.2572,-0.2491,-0.2425,-0.2373,-0.2276,-0.2227,-0.2105,-0.2062,-0.1939,-0.187,-0.1789,-0.1689,-0.1744,-0.1537,-0.1615,-0.1487,-0.1481,-0.1367,-0.1355,-0.15,-0.15,-0.15,-0.1501,-0.1501,0,-0.2764,-0.2733,-0.2647,-0.257,-0.2542,-0.2481,-0.2382,-0.2326,-0.2227,-0.2182,-0.209,-0.2041,-0.193,-0.1961,-0.1812,-0.1869,-0.1807,-0.1773,-0.1766,-0.1674,-0.1712,-0.1508,-0.1369,-0.1701,-0.1703,-0.1706,-0.1707,0,-0.2832,-0.2758,-0.2717,-0.2627,-0.2585,-0.2536,-0.2479,-0.2413,-0.2356,-0.2277,-0.2211,-0.2117,-0.2115,-0.2058,-0.2011,-0.1945,-0.1878,-0.1967,-0.1821,-0.1815,-0.1774,-0.1669,-0.1592,-0.1413,-0.1735,-0.1732,-0.173,0,-0.2883,-0.2805,-0.2785,-0.2746,-0.2671,-0.2641,-0.2566,-0.25,-0.244,-0.2375,-0.2288,-0.2183,-0.2151,-0.2093,-0.2055,-0.2009,-0.1922,-0.2004,-0.2001,-0.1945,-0.1787,-0.1716,-0.1691,-0.1944,-0.1942,-0.194,-0.1752,0,-0.2923,-0.286,-0.2829,-0.2763,-0.2726,-0.2674,-0.2634,-0.2587,-0.2538,-0.2498,-0.2387,-0.232,-0.2212,-0.219,-0.2156,-0.2059,-0.2041,-0.2068,-0.2071,-0.2026,-0.1948,-0.1931,-0.2129,-0.2128,-0.2128,-0.2128,0,0,-0.2985,-0.2919,-0.2894,-0.2848,-0.2806,-0.2779,-0.2726,-0.269,-0.2604,-0.2559,-0.2552,-0.2377,-0.2317,-0.2205,-0.2181,-0.2158,-0.2115,-0.2129,-0.205,-0.2042,-0.2034,-0.1958,-0.1942,-0.2128,-0.2128,-0.2128,-0.2127,0,-0.3007,-0.2955,-0.2911,-0.2881,-0.282,-0.2797,-0.2778,-0.2716,-0.2675,-0.2591,-0.2539,-0.246,-0.2342,-0.2282,-0.2234,-0.2166,-0.2121,-0.2138,-0.2098,-0.2051,-0.2043,-0.2036,-0.196,-0.1946,-0.2127,-0.2127,-0.2127,0,-0.3048,-0.3009,-0.2978,-0.2918,-0.2875,-0.2833,-0.282,-0.276,-0.2715,-0.2661,-0.2558,-0.2504,-0.2418,-0.233,-0.228,-0.2279,-0.2127,-0.2176,-0.2175,-0.2148,-0.2099,-0.2089,-0.2081,-0.2191,-0.2191,-0.2192,0,0,-0.3067,-0.3021,-0.2976,-0.2919,-0.2897,-0.2844,-0.2812,-0.2777,-0.2712,-0.2675,-0.2605,-0.2517,-0.2442,-0.2386,-0.2319,-0.2232,-0.2192,-0.2187,-0.2184,-0.2182,-0.2154,-0.2104,-0.2095,-0.2194,-0.2194,-0.2194,0,0,-0.3077,-0.3016,-0.299,-0.2924,-0.2891,-0.2841,-0.2798,-0.277,-0.2692,-0.2659,-0.2595,-0.257,-0.2472,-0.2425,-0.246,-0.231,-0.2318,-0.2309,-0.2346,-0.2341,-0.2338,-0.2326,-0.2435,0,0,0,0,0,-0.3073,-0.303,-0.3007,-0.2989,-0.2892,-0.2856,-0.2843,-0.2786,-0.275,-0.2731,-0.265,-0.2619,-0.243,-0.246,-0.2438,-0.2394,-0.222,-0.2215,-0.2211,-0.2238,-0.2233,-0.223,0,0,0,0,0,0,-0.3065,-0.3045,-0.3009,-0.2958,-0.2935,-0.2856,-0.2826,-0.281,-0.2751,-0.2743,-0.2637,-0.2618,-0.2576,-0.2467,-0.2448,-0.2408,-0.2441,-0.2218,-0.2214,-0.2211,-0.2236,-0.2233,-0.223,0,0,0,0,0,-0.306,-0.3043,-0.2897,-0.2958,-0.2938,-0.286,-0.2825,-0.2812,-0.2757,-0.2681,-0.266,-0.2712,-0.2579,-0.2556,-0.2456,-0.2418,-0.2454,-0.2447,-0.2216,-0.2212,-0.221,-0.2234,0,0,0,0,0,0,-0.3055,-0.3035,-0.2892,-0.2885,-0.2952,-0.2863,-0.2846,-0.2814,-0.2696,-0.2677,-0.2756,-0.2752,-0.258,-0.2562,-0.2545,-0.2424,-0.2465,-0.2458,-0.2453,-0.2213,-0.2211,-0.2209,0,0,0,0,0,0,-0.3043,-0.3029,-0.2888,-0.2884,-0.2876,-0.2865,-0.285,-0.278,-0.2693,-0.2777,-0.277,-0.2755,-0.2587,-0.2567,-0.2553,-0.2449,-0.2473,-0.2466,-0.2461,-0.2458,-0.2211,-0.2209,0,0,0,0,0,0,-0.3037,-0.3024,-0.2886,-0.2879,-0.2872,-0.2783,-0.2801,-0.2692,-0.2727,-0.2782,-0.2724,-0.2723,-0.2591,-0.2577,-0.2559,-0.2461,-0.2452,-0.2472,-0.2468,-0.2465,-0.2462,0,0,0,0,0,0,0,-0.3031,-0.3125,-0.2936,-0.2875,-0.2869,-0.2814,-0.2812,-0.281,-0.2726,-0.2725,-0.2724,-0.2723,-0.2511,-0.2504,-0.2496,-0.2472,0,0,-0.2473,-0.247,0,0,0,0,0,0,0,0,-0.3129,-0.3126,-0.2936,-0.2934,-0.2933,-0.2814,-0.2812,-0.2811,-0.2726,-0.2725,-0.2724,-0.2724,-0.2509,-0.2503,-0.2497,0,0,0,0,0,0,0,0,0,0,0,0,0,0,0,-0.2936,-0.2934,0,-0.2813,-0.2812,-0.2811,-0.2726,-0.2725,-0.2725,-0.2724,-0.2508,-0.2503,-0.2498,0,0,0,0,0,0,0,0,0,0,0,0,0,0,0,0,0,0,0,0,0,0,0,0,0,0,0,0,0,0,0,0,0,0,0,0,0,0,0,0,0,0,0,0,0,0,0,0,0,0,0,0,0,0,0,0,0,0,0,0,0,0,0,0,0,0,0,0,0]}],[{"header":{"parameterUnit":"kt","parameterCategory":2,"dx":1,"dy":1,"la1":30.253999710083008,"la2":30.299108505249023,"lo1":-89.0895004272461,"lo2":-89.04439544677734,"nx":28,"ny":28,"refTime":"2022-09-19T21:00:00:Z","depth":"2","parameterNumber":3,"parameterNumberName":"V-component_of_CURRENTS"},"data":[0.0453,0.0386,0.0367,0.0301,0.0312,0.0306,0.032,0.0242,0.0179,-0.0067,-0.0148,-0.037,-0.0094,0.006,0.0239,0.0467,0.0575,0.0469,0.0429,0.0584,0.0602,0.0803,0.0792,0,0,0,0,0,0.0494,0.0484,0.0468,0.0439,0.0418,0.0478,0.052,0.0473,0.0438,0.0352,0.0221,0.0084,0.0048,0.0227,0.046,0.0507,0.0581,0.0592,0.073,0.0749,0.0767,0.0752,0.0577,0.0578,0.0579,0.0579,0,0,0.0575,0.0556,0.0535,0.0518,0.0536,0.055,0.0554,0.0599,0.0611,0.0583,0.06,0.0461,0.0512,0.0337,0.0444,0.0643,0.0638,0.0725,0.074,0.0756,0.0732,0.0639,0.0555,0.0556,0.0556,0.0556,0.0556,0,0.0616,0.0612,0.0607,0.0594,0.0597,0.0629,0.0662,0.0685,0.0789,0.0819,0.0852,0.0784,0.0783,0.0718,0.0676,0.0679,0.0913,0.0863,0.1007,0.1024,0.0935,0.0978,0.0989,0.0917,0.0919,0.0921,0.0922,0.0923,0.0658,0.0645,0.0662,0.066,0.066,0.0675,0.0696,0.0769,0.0814,0.0939,0.0969,0.1023,0.0954,0.0948,0.0979,0.0922,0.1067,0.0927,0.097,0.1024,0.1065,0.1072,0.1078,0.0949,0.0946,0.0943,0.0941,0,0.0679,0.0689,0.0695,0.0723,0.073,0.0733,0.079,0.0823,0.0883,0.0946,0.0959,0.1055,0.1074,0.1107,0.1195,0.1169,0.118,0.1168,0.1086,0.1106,0.1103,0.1103,0.1034,0.1029,0.1024,0.1021,0.1018,0,0.072,0.0729,0.0742,0.0739,0.0755,0.0795,0.0825,0.0863,0.0924,0.0969,0.1013,0.1058,0.1135,0.1173,0.1196,0.1179,0.127,0.121,0.1242,0.1241,0.1227,0.1455,0.1461,0.141,0.141,0.1411,0.1411,0,0.0747,0.077,0.0768,0.0777,0.0822,0.0831,0.0858,0.0914,0.0952,0.0995,0.1034,0.1068,0.1126,0.1161,0.122,0.1238,0.1286,0.1369,0.1275,0.1265,0.1295,0.1286,0.1412,0.1412,0.1412,0.1412,0.1412,0,0.0779,0.0787,0.0781,0.0833,0.0841,0.0845,0.0906,0.0931,0.0982,0.1009,0.1039,0.1094,0.1131,0.1164,0.1235,0.1224,0.1271,0.1328,0.1331,0.1254,0.1322,0.1246,0.1162,0.1357,0.1357,0.1357,0.1357,0,0.0808,0.0803,0.0825,0.0837,0.0842,0.0886,0.0907,0.0941,0.0978,0.1018,0.1072,0.1139,0.1145,0.1193,0.122,0.1329,0.1329,0.133,0.1451,0.1452,0.1324,0.1249,0.1231,0.1169,0.1357,0.1357,0.1357,0,0.0829,0.0845,0.0847,0.0862,0.0893,0.0907,0.0922,0.0958,0.0988,0.1011,0.1051,0.114,0.1172,0.1234,0.1309,0.1347,0.1329,0.1383,0.139,0.1335,0.1394,0.1264,0.1251,0.1412,0.1413,0.1413,0.1357,0,0.0861,0.0872,0.0866,0.0887,0.0906,0.0912,0.0945,0.0966,0.0999,0.1031,0.1097,0.1195,0.129,0.1324,0.1371,0.1416,0.1404,0.149,0.1527,0.1498,0.1474,0.1474,0.1514,0.1517,0.1518,0.152,0,0,0.0891,0.0895,0.092,0.0922,0.0942,0.0982,0.0987,0.1011,0.1077,0.1103,0.1119,0.127,0.1363,0.1448,0.1436,0.1493,0.1498,0.1479,0.1513,0.1512,0.1511,0.1487,0.1484,0.1523,0.1524,0.1525,0.1525,0,0.0901,0.0922,0.0919,0.0937,0.0968,0.0998,0.0998,0.1045,0.1076,0.1117,0.1206,0.1276,0.1379,0.1461,0.1516,0.151,0.1561,0.1533,0.1455,0.1527,0.1523,0.152,0.1495,0.1491,0.153,0.1529,0.1529,0,0.0928,0.095,0.0954,0.0984,0.1011,0.1022,0.1069,0.1088,0.1106,0.1211,0.1262,0.1336,0.1446,0.1502,0.1538,0.156,0.1606,0.1614,0.1607,0.1588,0.1665,0.166,0.1656,0.1708,0.1708,0.1708,0,0,0.0941,0.0947,0.0985,0.099,0.0998,0.1051,0.1072,0.1108,0.1165,0.1197,0.1273,0.1362,0.1439,0.1485,0.1561,0.1609,0.1641,0.163,0.1622,0.1614,0.1592,0.1665,0.1661,0.1708,0.1708,0.1708,0,0,0.095,0.0986,0.1009,0.1016,0.1044,0.1098,0.1111,0.1147,0.1213,0.1229,0.1331,0.1359,0.1425,0.1491,0.1478,0.1577,0.1619,0.1624,0.152,0.1511,0.1503,0.1454,0.156,0,0,0,0,0,0.098,0.0974,0.0994,0.1001,0.1057,0.108,0.1091,0.1155,0.1185,0.1192,0.1273,0.1335,0.1507,0.1498,0.1521,0.1526,0.1708,0.1708,0.1708,0.1587,0.1577,0.1568,0,0,0,0,0,0,0.0983,0.0989,0.0995,0.1042,0.1056,0.1081,0.1136,0.1154,0.1186,0.1196,0.1315,0.1338,0.141,0.1492,0.1512,0.1515,0.1553,0.1708,0.1708,0.1708,0.1584,0.1575,0.1568,0,0,0,0,0,0.0986,0.0991,0.1061,0.1045,0.1057,0.1133,0.1138,0.1153,0.1186,0.1292,0.1315,0.1232,0.1407,0.1431,0.1504,0.1503,0.1541,0.1548,0.1708,0.1708,0.1708,0.158,0,0,0,0,0,0,0.0988,0.1014,0.1066,0.1073,0.1056,0.1135,0.1148,0.1152,0.1283,0.1303,0.1214,0.1221,0.1405,0.1424,0.1442,0.1494,0.153,0.1537,0.1542,0.1708,0.1708,0.1708,0,0,0,0,0,0,0.1012,0.1019,0.1069,0.108,0.1089,0.1136,0.1147,0.1213,0.1286,0.12,0.1208,0.1216,0.1397,0.1419,0.1433,0.1533,0.1522,0.1529,0.1533,0.1536,0.1708,0.1708,0,0,0,0,0,0,0.1017,0.1023,0.1079,0.1086,0.1094,0.1179,0.12,0.1269,0.125,0.1195,0.1254,0.1256,0.1392,0.1407,0.1427,0.152,0.153,0.1522,0.1527,0.153,0.1532,0,0,0,0,0,0,0,0.1021,0.0956,0.1021,0.1091,0.1098,0.1136,0.1138,0.114,0.125,0.1252,0.1254,0.1255,0.1483,0.1491,0.1498,0.1509,0,0,0.1522,0.1525,0,0,0,0,0,0,0,0,0.0955,0.0956,0.1021,0.1022,0.1024,0.1136,0.1138,0.114,0.125,0.1252,0.1253,0.1255,0.1485,0.1491,0.1497,0,0,0,0,0,0,0,0,0,0,0,0,0,0,0,0.1021,0.1022,0,0.1136,0.1138,0.1139,0.1251,0.1252,0.1253,0.1254,0.1487,0.1492,0.1497,0,0,0,0,0,0,0,0,0,0,0,0,0,0,0,0,0,0,0,0,0,0,0,0,0,0,0,0,0,0,0,0,0,0,0,0,0,0,0,0,0,0,0,0,0,0,0,0,0,0,0,0,0,0,0,0,0,0,0,0,0,0,0,0,0,0,0,0,0]}]],[[{"header":{"parameterUnit":"kt","parameterCategory":2,"dx":1,"dy":1,"la1":30.253999710083008,"la2":30.299108505249023,"lo1":-89.0895004272461,"lo2":-89.04439544677734,"nx":28,"ny":28,"refTime":"2022-09-19T21:00:00:Z","depth":"4","parameterNumber":2,"parameterNumberName":"U-component_of_CURRENTS"},"data":[-0.1046,-0.1068,-0.1057,-0.0966,-0.091,-0.0894,-0.0923,-0.0986,-0.0964,-0.1051,-0.1015,-0.1062,-0.1004,-0.1096,-0.0941,-0.0939,-0.1104,-0.0967,-0.0963,-0.1331,-0.1362,-0.1389,-0.132,0,0,0,0,0,-0.1071,-0.1063,-0.1076,-0.1061,-0.1064,-0.1057,-0.1123,-0.1176,-0.1256,-0.1184,-0.123,-0.1172,-0.1082,-0.1073,-0.0986,-0.1071,-0.1215,-0.0963,-0.1273,-0.135,-0.1384,-0.1305,0,0,0,0,0,0,-0.1108,-0.111,-0.1161,-0.1167,-0.1182,-0.1152,-0.1193,-0.1202,-0.1228,-0.1305,-0.127,-0.1262,-0.1298,-0.1194,-0.1211,-0.1178,-0.121,-0.124,-0.1278,-0.1311,-0.1226,-0.1083,-0.0834,0,0,0,0,0,-0.1135,-0.1177,-0.1212,-0.1236,-0.1264,-0.1273,-0.1314,-0.1318,-0.1403,-0.1471,-0.1415,-0.1377,-0.1313,-0.1332,-0.13,-0.1374,-0.1626,-0.153,-0.1552,-0.1649,-0.1569,-0.1569,-0.1585,-0.1514,-0.1518,-0.1521,-0.1523,0,-0.1181,-0.1201,-0.1282,-0.1295,-0.1329,-0.1374,-0.1395,-0.1479,-0.1502,-0.155,-0.1547,-0.1538,-0.156,-0.1476,-0.1583,-0.1623,-0.1633,-0.1617,-0.1721,-0.1624,-0.1614,-0.1623,-0.1629,-0.155,-0.1548,-0.1546,-0.1543,0,-0.1206,-0.1259,-0.1305,-0.1383,-0.1399,-0.1427,-0.1496,-0.152,-0.1584,-0.1609,-0.1629,-0.1682,-0.1689,-0.1773,-0.1887,-0.1867,-0.189,-0.1833,-0.2052,-0.2049,-0.1681,-0.1677,-0.1595,-0.1585,-0.1577,-0.157,-0.1564,0,-0.1258,-0.129,-0.1366,-0.1388,-0.1416,-0.1491,-0.1527,-0.1572,-0.1637,-0.1658,-0.1738,-0.1745,-0.1898,-0.1933,-0.2023,-0.1963,-0.2114,-0.1945,-0.1924,-0.2209,-0.2203,-0.2217,-0.2211,-0.2267,-0.2268,-0.2268,-0.2268,0,-0.1284,-0.1351,-0.1382,-0.1408,-0.1486,-0.1515,-0.1556,-0.1623,-0.1652,-0.1721,-0.1739,-0.1844,-0.1879,-0.1986,-0.2045,-0.2083,-0.2134,-0.2196,-0.1972,-0.1951,-0.2216,-0.221,-0.2268,-0.2268,-0.2269,-0.2269,-0.2269,0,-0.1326,-0.1358,-0.1402,-0.1466,-0.1484,-0.152,-0.1581,-0.1621,-0.1689,-0.1722,-0.179,-0.1836,-0.1924,-0.1955,-0.2072,-0.2062,-0.2102,-0.214,-0.2141,-0.189,-0.1856,-0.2049,-0.2106,-0.2105,-0.2104,-0.2103,-0.2103,0,-0.1326,-0.1373,-0.1411,-0.1463,-0.1491,-0.1544,-0.1581,-0.1634,-0.1677,-0.1721,-0.1791,-0.1847,-0.1892,-0.1927,-0.1994,-0.2055,-0.209,-0.207,-0.2122,-0.2122,-0.1853,-0.1845,-0.2129,-0.2092,-0.2093,-0.2094,-0.2095,0,-0.1324,-0.1394,-0.1403,-0.143,-0.1496,-0.1522,-0.1571,-0.1617,-0.1647,-0.1713,-0.1752,-0.1852,-0.1881,-0.192,-0.1962,-0.2019,-0.2066,-0.204,-0.2043,-0.1998,-0.2141,-0.1865,-0.1844,-0.2119,-0.2121,-0.2123,-0.2088,0,-0.1351,-0.1382,-0.14,-0.1449,-0.1481,-0.1513,-0.1559,-0.1593,-0.1632,-0.1664,-0.1738,-0.1798,-0.1865,-0.1894,-0.1923,-0.1998,-0.1979,-0.2007,-0.1992,-0.204,-0.2015,-0.202,-0.1952,-0.1952,-0.1952,-0.1952,0,0,-0.1334,-0.1361,-0.1393,-0.1424,-0.1452,-0.1494,-0.1521,-0.1554,-0.1616,-0.1639,-0.1653,-0.177,-0.1811,-0.1882,-0.1906,-0.1929,-0.1941,-0.1926,-0.2018,-0.2025,-0.2032,-0.201,-0.2016,-0.1952,-0.1952,-0.1952,-0.1951,0,-0.1335,-0.1362,-0.1382,-0.1413,-0.1463,-0.1486,-0.1502,-0.1551,-0.1573,-0.1633,-0.1663,-0.172,-0.1795,-0.183,-0.1861,-0.1923,-0.1921,-0.1943,-0.196,-0.2015,-0.2023,-0.2029,-0.2009,-0.2014,-0.1951,-0.1951,-0.1951,0,-0.1328,-0.1355,-0.1368,-0.141,-0.1443,-0.1473,-0.1487,-0.1528,-0.1555,-0.1587,-0.1643,-0.1682,-0.1735,-0.1791,-0.1822,-0.1817,-0.1903,-0.1886,-0.1888,-0.1886,-0.1942,-0.1951,-0.1959,-0.1856,-0.1855,-0.1855,0,0,-0.1328,-0.135,-0.1389,-0.1413,-0.1431,-0.1474,-0.1497,-0.1518,-0.1561,-0.1582,-0.1617,-0.1668,-0.1716,-0.1747,-0.1785,-0.1843,-0.185,-0.1871,-0.1876,-0.1879,-0.1879,-0.1937,-0.1945,-0.1853,-0.1852,-0.1852,0,0,-0.1328,-0.137,-0.1386,-0.141,-0.1443,-0.1483,-0.1505,-0.1527,-0.1573,-0.1586,-0.1616,-0.1628,-0.1688,-0.1714,-0.1682,-0.178,-0.1766,-0.1773,-0.1753,-0.1759,-0.1764,-0.175,-0.1672,0,0,0,0,0,-0.1353,-0.1364,-0.1378,-0.1388,-0.1442,-0.1477,-0.1485,-0.1514,-0.1532,-0.1543,-0.1589,-0.159,-0.1704,-0.1676,-0.1688,-0.1713,-0.1824,-0.1829,-0.1834,-0.1823,-0.1829,-0.1834,0,0,0,0,0,0,-0.1357,-0.1367,-0.1378,-0.1417,-0.143,-0.1476,-0.1484,-0.1492,-0.153,-0.1533,-0.1583,-0.1591,-0.1603,-0.1671,-0.1681,-0.1705,-0.1668,-0.1826,-0.183,-0.1834,-0.1825,-0.183,-0.1834,0,0,0,0,0,-0.1361,-0.1369,-0.1445,-0.1417,-0.1428,-0.1472,-0.1484,-0.149,-0.1522,-0.1557,-0.1566,-0.1545,-0.1603,-0.1614,-0.1677,-0.17,-0.1661,-0.1665,-0.1829,-0.1832,-0.1835,-0.1827,0,0,0,0,0,0,-0.1363,-0.1373,-0.1448,-0.1453,-0.1414,-0.147,-0.1478,-0.1489,-0.1544,-0.1553,-0.1518,-0.1519,-0.1602,-0.1611,-0.162,-0.1698,-0.1656,-0.1659,-0.1662,-0.1831,-0.1834,-0.1836,0,0,0,0,0,0,-0.1369,-0.1377,-0.145,-0.1445,-0.1449,-0.1468,-0.1475,-0.1515,-0.1545,-0.1502,-0.1505,-0.1518,-0.1596,-0.1609,-0.1616,-0.1677,-0.1651,-0.1655,-0.1657,-0.1659,-0.1834,-0.1836,0,0,0,0,0,0,-0.1373,-0.138,-0.1443,-0.1447,-0.1451,-0.1509,-0.1505,-0.156,-0.1533,-0.1499,-0.1532,-0.1532,-0.1595,-0.1602,-0.1614,-0.1671,-0.1675,-0.1651,-0.1654,-0.1656,-0.1657,0,0,0,0,0,0,0,-0.1377,-0.1322,-0.142,-0.1449,-0.1452,-0.1502,-0.1503,-0.1504,-0.1533,-0.1532,-0.1532,-0.1532,-0.163,-0.1634,-0.1638,-0.1666,0,0,-0.1651,-0.1653,0,0,0,0,0,0,0,0,-0.132,-0.1322,-0.142,-0.1422,-0.1423,-0.1502,-0.1503,-0.1504,-0.1533,-0.1532,-0.1532,-0.1532,-0.1631,-0.1635,-0.1638,0,0,0,0,0,0,0,0,0,0,0,0,0,0,0,-0.1421,-0.1422,0,-0.1502,-0.1503,-0.1504,-0.1533,-0.1532,-0.1532,-0.1532,-0.1632,-0.1635,-0.1638,0,0,0,0,0,0,0,0,0,0,0,0,0,0,0,0,0,0,0,0,0,0,0,0,0,0,0,0,0,0,0,0,0,0,0,0,0,0,0,0,0,0,0,0,0,0,0,0,0,0,0,0,0,0,0,0,0,0,0,0,0,0,0,0,0,0,0,0,0]}],[{"header":{"parameterUnit":"kt","parameterCategory":2,"dx":1,"dy":1,"la1":30.253999710083008,"la2":30.299108505249023,"lo1":-89.0895004272461,"lo2":-89.04439544677734,"nx":28,"ny":28,"refTime":"2022-09-19T21:00:00:Z","depth":"4","parameterNumber":3,"parameterNumberName":"V-component_of_CURRENTS"},"data":[-0.1053,-0.1122,-0.1152,-0.1266,-0.1338,-0.1462,-0.1513,-0.1536,-0.1489,-0.1487,-0.1376,-0.1327,-0.1133,-0.1282,-0.094,-0.0902,-0.0866,-0.0682,-0.0677,-0.0673,-0.0685,-0.0696,-0.0699,0,0,0,0,0,-0.1044,-0.1084,-0.1166,-0.1267,-0.1376,-0.144,-0.1521,-0.1549,-0.1573,-0.1521,-0.1513,-0.1401,-0.1188,-0.1125,-0.0951,-0.0977,-0.0826,-0.0766,-0.0764,-0.0681,-0.0694,-0.0693,0,0,0,0,0,0,-0.1042,-0.1084,-0.1153,-0.1239,-0.135,-0.1433,-0.1478,-0.1504,-0.1536,-0.1548,-0.1525,-0.1434,-0.1406,-0.1183,-0.105,-0.0906,-0.0835,-0.0775,-0.0782,-0.0793,-0.0804,-0.0812,-0.0702,0,0,0,0,0,-0.1026,-0.1064,-0.1121,-0.1222,-0.1308,-0.1399,-0.1483,-0.1504,-0.1557,-0.1595,-0.1548,-0.1459,-0.1358,-0.1221,-0.1081,-0.093,-0.0937,-0.0848,-0.0853,-0.0815,-0.0819,-0.0794,-0.0804,-0.0744,-0.0745,-0.0746,-0.0747,0,-0.1003,-0.1038,-0.114,-0.1194,-0.1241,-0.1335,-0.1402,-0.1465,-0.1505,-0.1551,-0.1569,-0.154,-0.1514,-0.1286,-0.1193,-0.0993,-0.0938,-0.0883,-0.0844,-0.0841,-0.0811,-0.0818,-0.0824,-0.0758,-0.0757,-0.0756,-0.0755,0,-0.0988,-0.1022,-0.11,-0.1182,-0.1219,-0.1284,-0.1386,-0.1441,-0.1481,-0.1536,-0.1557,-0.1567,-0.1486,-0.1413,-0.129,-0.1175,-0.1041,-0.0962,-0.1117,-0.1088,-0.0842,-0.0843,-0.0775,-0.0771,-0.0768,-0.0765,-0.0763,0,-0.0965,-0.1023,-0.108,-0.1115,-0.1206,-0.1246,-0.1338,-0.1378,-0.1432,-0.1478,-0.1488,-0.1505,-0.1456,-0.141,-0.1301,-0.1143,-0.1198,-0.099,-0.0952,-0.1076,-0.1077,-0.1041,-0.1038,-0.1073,-0.1073,-0.1074,-0.1074,0,-0.0935,-0.1002,-0.1061,-0.1086,-0.1161,-0.1211,-0.1258,-0.1317,-0.1361,-0.1411,-0.144,-0.1441,-0.1452,-0.1366,-0.1277,-0.1258,-0.1179,-0.1144,-0.0981,-0.0973,-0.1043,-0.1039,-0.1074,-0.1074,-0.1075,-0.1075,-0.1075,0,-0.0914,-0.0943,-0.101,-0.1086,-0.1105,-0.1155,-0.1238,-0.1281,-0.1329,-0.1349,-0.1369,-0.1371,-0.1375,-0.1324,-0.1257,-0.126,-0.118,-0.1129,-0.1125,-0.1008,-0.0954,-0.1007,-0.1057,-0.1058,-0.1058,-0.1058,-0.1058,0,-0.088,-0.0929,-0.0943,-0.1017,-0.105,-0.1076,-0.1129,-0.1174,-0.1204,-0.1249,-0.1251,-0.1292,-0.1251,-0.1262,-0.1233,-0.119,-0.1155,-0.1173,-0.1055,-0.1052,-0.0958,-0.098,-0.1118,-0.1061,-0.1061,-0.1061,-0.106,0,-0.0847,-0.0881,-0.089,-0.0923,-0.096,-0.0987,-0.1039,-0.1087,-0.1128,-0.1152,-0.12,-0.1223,-0.1212,-0.1211,-0.1188,-0.1162,-0.1157,-0.1104,-0.11,-0.1075,-0.109,-0.0994,-0.0983,-0.1117,-0.1117,-0.1117,-0.1063,0,-0.0818,-0.0851,-0.0862,-0.0897,-0.0922,-0.095,-0.0973,-0.1005,-0.1028,-0.1048,-0.1094,-0.1092,-0.1109,-0.111,-0.109,-0.1109,-0.1071,-0.1045,-0.0994,-0.1039,-0.1008,-0.1007,-0.1001,-0.0999,-0.0998,-0.0997,0,0,-0.0785,-0.0814,-0.0815,-0.0835,-0.0857,-0.0859,-0.0894,-0.0916,-0.0943,-0.0964,-0.0957,-0.0995,-0.0989,-0.1019,-0.1039,-0.1031,-0.0994,-0.0998,-0.1022,-0.1025,-0.1028,-0.1001,-0.1001,-0.0995,-0.0995,-0.0994,-0.0994,0,-0.0764,-0.0783,-0.0806,-0.0819,-0.0834,-0.0844,-0.0853,-0.0871,-0.0893,-0.0931,-0.0925,-0.0944,-0.0949,-0.0955,-0.0955,-0.101,-0.0951,-0.1002,-0.1035,-0.1012,-0.1017,-0.1021,-0.0996,-0.0997,-0.0991,-0.0991,-0.0991,0,-0.0739,-0.0746,-0.0763,-0.0784,-0.0793,-0.0818,-0.0803,-0.0825,-0.0859,-0.0827,-0.0874,-0.0873,-0.0863,-0.0889,-0.0896,-0.0868,-0.0895,-0.0894,-0.09,-0.0903,-0.0877,-0.0883,-0.0889,-0.0816,-0.0816,-0.0815,0,0,-0.0723,-0.0746,-0.0753,-0.078,-0.0784,-0.0795,-0.0806,-0.0816,-0.0825,-0.0836,-0.0836,-0.0837,-0.0849,-0.0844,-0.0853,-0.0861,-0.0832,-0.0875,-0.0883,-0.089,-0.0897,-0.0873,-0.0879,-0.0814,-0.0814,-0.0814,0,0,-0.0712,-0.0725,-0.0734,-0.0762,-0.0775,-0.078,-0.0796,-0.0804,-0.0825,-0.083,-0.0812,-0.081,-0.0839,-0.0815,-0.0799,-0.0834,-0.0797,-0.08,-0.085,-0.0859,-0.0867,-0.0877,-0.0762,0,0,0,0,0,-0.0698,-0.072,-0.0729,-0.0734,-0.0764,-0.0778,-0.0783,-0.0794,-0.0797,-0.0815,-0.082,-0.0794,-0.0809,-0.0794,-0.079,-0.0814,-0.0795,-0.0798,-0.0801,-0.0868,-0.0879,-0.0888,0,0,0,0,0,0,-0.07,-0.0706,-0.0727,-0.0733,-0.0739,-0.0777,-0.077,-0.0775,-0.0795,-0.0797,-0.0797,-0.0794,-0.0779,-0.0793,-0.0791,-0.0814,-0.0763,-0.0796,-0.0799,-0.0801,-0.0872,-0.0881,-0.0888,0,0,0,0,0,-0.0701,-0.0706,-0.0755,-0.0733,-0.0739,-0.0754,-0.077,-0.0774,-0.0799,-0.0778,-0.0778,-0.0807,-0.078,-0.0777,-0.0791,-0.0816,-0.0764,-0.0764,-0.0798,-0.08,-0.0802,-0.0876,0,0,0,0,0,0,-0.0702,-0.0716,-0.0756,-0.0758,-0.0729,-0.0753,-0.0759,-0.0773,-0.0779,-0.078,-0.0785,-0.0786,-0.078,-0.0778,-0.0776,-0.0819,-0.0766,-0.0765,-0.0764,-0.08,-0.0801,-0.0803,0,0,0,0,0,0,-0.0713,-0.0718,-0.0757,-0.0751,-0.0753,-0.0752,-0.0757,-0.0749,-0.0778,-0.0787,-0.0787,-0.0785,-0.0766,-0.0778,-0.0777,-0.0766,-0.0766,-0.0766,-0.0765,-0.0765,-0.0801,-0.0802,0,0,0,0,0,0,-0.0715,-0.0719,-0.0751,-0.0752,-0.0753,-0.0778,-0.0744,-0.0768,-0.0798,-0.0785,-0.0797,-0.0797,-0.0765,-0.0764,-0.0778,-0.0767,-0.0766,-0.0766,-0.0766,-0.0766,-0.0765,0,0,0,0,0,0,0,-0.0716,-0.0687,-0.074,-0.0753,-0.0754,-0.0773,-0.0774,-0.0775,-0.0798,-0.0798,-0.0797,-0.0797,-0.0771,-0.077,-0.0769,-0.0769,0,0,-0.0766,-0.0766,0,0,0,0,0,0,0,0,-0.0685,-0.0687,-0.074,-0.074,-0.074,-0.0773,-0.0774,-0.0774,-0.0798,-0.0798,-0.0797,-0.0797,-0.0771,-0.077,-0.0769,0,0,0,0,0,0,0,0,0,0,0,0,0,0,0,-0.074,-0.074,0,-0.0773,-0.0774,-0.0774,-0.0798,-0.0798,-0.0797,-0.0797,-0.077,-0.077,-0.0769,0,0,0,0,0,0,0,0,0,0,0,0,0,0,0,0,0,0,0,0,0,0,0,0,0,0,0,0,0,0,0,0,0,0,0,0,0,0,0,0,0,0,0,0,0,0,0,0,0,0,0,0,0,0,0,0,0,0,0,0,0,0,0,0,0,0,0,0,0]}]]]